Helicity
267 243 207 193 220 204 148 131 146 178 191 213 254 271 259 226 287 230 220 230 197 195 178 146 105 83 167 261 334 568 466 281 292 290 323 224 170 114 137 107 85 110 111
196 151 179 244 313 359 402 445 212 225 225 193 243 267 259 244 239 220 224 200 169 154 129 137 112 167 190 280 439 400 247 343 298 281 287 224 124 90 97 156 154 143 130
403 383 365 366 406 431 426 422 376 229 251 251 247 213 217 219 213 192 191 175 157 141 137 134 120 189 176 258 371 312 345 389 360 318 268 198 185 116 146 212 179 222 197
375 381 398 395 301 319 310 330 272 247 255 195 171 153 170 205 230 166 169 153 143 132 120 127 97 116 182 332 313 275 418 426 393 284 231 229 206 178 177 168 175 184 210
284 303 314 266 228 218 217 153 173 131 208 255 208 163 196 220 261 175 146 127 130 129 119 125 102 137 231 260 299 251 335 367 336 218 168 155 193 211 177 182 163 269 312
238 252 327 286 288 237 264 245 152 144 118 263 369 400 502 437 587 336 116 108 126 133 128 147 113 101 161 241 340 272 472 260 166 162 171 203 114 138 174 185 212 326 259
122 171 261 329 306 296 211 232 217 194 192 181 352 458 447 417 519 397 183 168 188 221 231 188 184 177 158 223 316 354 391 347 252 146 192 181 143 200 262 276 185 236 294
50 67 90 171 235 278 255 208 183 158 195 230 207 262 213 205 315 343 287 309 302 295 265 246 203 185 190 225 272 317 324 350 287 368 367 384 384 354 310 264 287 383 400
51 46 33 26 68 125 215 253 224 165 191 232 164 110 234 138 171 274 275 339 387 370 330 297 236 230 204 205 303 343 342 322 381 484 475 459 500 364 358 316 337 359 363
72 44 18 14 15 11 18 67 108 131 150 140 219 236 250 283 214 53 242 234 330 366 409 393 334 295 256 287 283 300 358 305 326 338 421 497 424 394 451 398 278 386 406
33 29 38 40 30 26 19 22 15 31 60 107 134 159 159 201 254 167 92 137 261 354 463 442 323 290 271 319 315 344 334 368 408 371 446 426 465 500 466 498 494 373 355
14 15 30 41 47 65 75 73 71 63 52 44 52 89 136 172 185 202 242 249 234 221 230 261 330 428 412 382 305 374 418 427 413 496 449 508 526 552 551 547 525 499 454
28 30 24 22 34 35 56 70 74 84 73 78 68 74 71 42 81 145 151 153 179 131 143 252 249 293 384 462 451 485 387 362 374 396 399 462 481 561 471 474 391 426 472
20 31 32 29 34 49 39 53 73 82 59 45 53 76 78 93 101 93 93 99 129 118 117 148 180 216 247 226 282 323 335 364 357 351 366 336 264 254 288 251 250 257 329
21 20 18 11 13 17 32 52 60 94 94 45 54 64 68 87 91 98 97 81 89 94 94 135 164 171 182 198 213 236 247 247 258 224 226 226 230 231 263 236 234 237 239
34 29 19 9 9 15 16 15 71 94 145 170 164 111 96 119 133 145 139 128 125 124 124 146 171 180 177 160 155 161 175 169 160 149 152 146 146 147 151 166 163 168 167
26 33 18 19 14 25 26 42 66 58 95 160 174 165 158 151 142 126 113 161 180 178 170 166 160 161 163 170 171 183 186 180 159 159 142 134 128 144 149 154 157 154 168
21 28 15 10 11 19 27 27 24 34 55 95 111 160 183 183 175 167 125 160 170 195 169 168 173 175 165 158 165 165 169 183 185 187 195 186 178 162 169 172 170 161 156
26 25 21 16 18 19 21 27 32 48 67 70 85 101 131 160 191 223 210 146 137 165 163 173 167 165 164 156 152 152 158 173 171 169 174 169 156 144 156 149 153 172 162
50 49 51 37 27 34 40 40 39 43 54 67 88 103 92 92 135 159 174 160 150 137 130 136 142 139 136 129 130 135 149 164 168 163 160 155 148 140 141 141 144 141 153
43 42 49 47 56 37 24 29 19 28 32 43 47 47 66 53 95 114 121 137 134 136 136 129 135 137 137 140 135 136 138 142 149 151 154 156 146 142 132 127 124 122 115
65 58 54 57 56 66 49 37 34 31 32 38 37 46 62 41 56 73 93 110 112 109 101 98 118 131 129 117 104 103 114 123 129 131 130 126 118 111 101 99 106 108 117
85 82 77 71 67 70 72 53 49 42 38 35 30 37 38 43 50 61 66 72 88 93 90 83 82 89 92 91 89 89 98 111 108 100 109 112 111 110 107 107 100 106 111
87 88 84 76 74 75 77 72 63 55 48 42 37 35 37 35 42 42 42 57 73 80 73 67 62 60 65 75 85 89 92 98 107 113 115 119 122 120 111 103 98 96 93
82 78 81 75 74 69 72 82 83 83 69 52 44 45 41 40 37 38 38 44 53 62 71 61 59 61 66 74 86 92 99 113 116 111 101 97 99 98 97 105 102 100 104
73 76 66 68 75 76 72 71 71 74 73 72 66 63 56 48 51 46 43 51 55 62 59 47 36 40 37 40 46 59 76 90 101 106 95 88 93 99 97 97 100 93 92
Wind_Speed
47 50 53 57 58 61 66 68 65 65 63 59 56 53 50 48 43 40 38 38 38 45 45 44 36 27 24 23 21 33 38 42 48 49 43 39 42 36 34 33 38 41 45
52 52 55 58 60 61 63 69 68 67 67 62 62 57 52 48 43 44 44 44 46 48 47 40 34 31 17 17 20 28 36 36 45 44 36 42 44 39 31 32 34 43 47
53 54 55 58 59 61 63 67 68 69 62 61 57 54 50 48 46 43 46 48 48 44 43 41 39 24 19 19 21 23 29 38 43 43 35 39 35 25 34 35 34 32 34
49 50 52 55 55 55 55 58 58 58 59 56 54 54 52 49 47 43 45 44 45 45 44 44 40 24 19 18 20 22 21 31 41 41 39 35 33 28 35 36 34 34 34
47 47 49 50 51 50 50 48 49 49 53 57 58 59 53 53 49 48 48 46 43 49 45 43 42 31 21 18 20 25 24 27 34 37 43 32 37 40 40 38 38 38 42
49 49 49 49 48 49 49 48 45 45 48 51 53 53 56 55 60 51 49 47 42 43 47 40 40 37 30 23 22 21 24 22 31 31 34 35 35 38 36 33 34 34 38
52 51 50 49 48 48 47 47 47 48 48 47 49 47 53 57 54 50 60 48 41 43 45 43 40 38 30 26 25 26 28 31 38 34 33 37 46 38 37 37 36 36 39
55 57 57 53 49 48 47 48 47 45 44 44 43 45 43 45 50 46 47 42 40 43 47 49 44 43 38 31 29 31 35 41 49 51 43 43 42 41 35 37 37 35 33
57 58 58 58 57 53 50 49 47 46 45 44 44 46 44 50 55 49 42 42 40 43 46 47 48 48 45 36 34 35 36 36 37 36 39 37 41 40 38 35 36 34 42
61 61 60 59 58 57 56 53 49 47 45 43 46 47 47 46 48 40 32 34 37 43 45 43 43 43 42 42 37 38 38 38 40 40 41 45 40 38 40 41 40 40 42
60 59 60 61 59 58 56 55 54 50 48 47 47 45 45 45 47 42 38 37 38 41 42 43 41 40 40 38 34 34 33 28 31 33 36 36 38 40 39 40 41 39 43
59 59 60 60 59 58 57 57 56 54 52 51 50 49 50 50 50 47 46 45 38 35 35 36 34 35 31 33 28 22 25 28 31 32 33 37 38 38 38 34 30 29 27
60 61 61 59 59 58 57 57 56 55 53 53 52 51 51 52 51 50 44 42 41 35 34 34 31 31 31 31 26 26 22 24 25 27 29 29 29 33 32 32 32 29 27
59 60 61 60 60 59 57 57 57 57 55 53 53 52 52 53 53 51 48 45 42 40 39 37 34 30 28 27 27 28 31 29 26 28 29 29 29 29 31 31 32 33 32
60 60 59 60 58 57 56 56 55 56 56 53 52 52 52 52 52 50 48 46 43 40 38 36 36 35 32 33 31 31 31 31 29 28 28 30 31 33 36 36 37 37 38
61 61 60 58 58 57 56 55 54 53 55 54 54 52 51 51 51 50 49 47 44 41 39 39 38 37 36 36 35 33 34 34 34 31 32 33 35 36 36 36 36 36 37
62 62 62 61 59 59 59 60 61 56 53 55 55 55 54 53 52 49 47 46 44 40 39 39 38 38 38 37 37 36 36 37 35 35 35 35 35 35 35 36 36 36 36
63 63 63 62 60 60 61 61 61 60 60 60 57 57 56 54 53 50 45 42 43 42 40 40 39 38 38 38 37 37 36 35 35 35 35 35 34 34 35 36 36 37 38
64 65 65 63 60 59 60 60 59 58 58 58 59 58 57 54 52 50 47 43 43 43 42 41 41 39 39 39 38 37 36 36 36 36 36 37 36 34 35 36 37 39 40
66 66 65 64 61 61 60 60 59 58 58 59 59 60 58 54 53 51 49 46 44 43 42 41 41 40 39 38 38 37 37 38 39 38 38 37 37 37 38 39 41 44 45
69 69 68 66 66 64 61 61 59 59 59 59 58 57 54 52 51 50 49 48 46 45 44 42 41 41 41 41 40 40 39 38 38 38 38 38 38 38 38 39 40 42 43
71 70 68 67 67 66 63 59 59 58 58 58 56 55 52 51 49 49 48 47 46 45 43 41 41 41 41 41 41 40 40 40 40 40 40 40 40 39 40 40 42 43 46
71 70 69 68 67 65 64 60 59 57 57 56 55 54 52 51 50 49 47 45 44 43 42 40 39 40 40 40 40 41 42 43 43 43 43 43 42 42 43 44 45 47 48
71 70 70 69 68 67 66 64 60 58 57 56 55 54 53 50 49 48 46 45 44 43 42 40 39 40 41 42 43 44 44 44 44 44 44 44 44 44 44 45 46 47 48
68 68 68 67 65 64 62 60 57 55 54 53 53 52 50 50 50 47 47 47 46 45 44 42 41 41 42 43 44 45 45 46 46 45 45 44 45 45 46 47 47 48 49
67 65 64 62 61 60 59 58 57 54 53 52 52 51 49 49 49 48 49 48 47 45 45 44 43 42 42 43 44 44 45 46 46 46 46 45 45 45 45 46 47 48 48
Wind_Direction
295 291 290 287 287 282 272 274 271 272 271 270 272 274 274 273 274 267 267 271 278 290 295 297 295 292 281 276 252 255 261 257 263 262 260 258 268 265 264 251 261 268 273
298 300 299 296 292 290 284 281 276 274 273 271 272 272 273 271 268 265 266 271 280 287 293 296 297 302 277 255 257 257 252 255 258 259 263 267 266 264 266 259 258 271 275
302 296 301 304 302 297 291 288 285 279 275 275 273 271 271 270 268 266 269 273 278 284 291 294 298 289 275 265 250 246 258 253 256 258 266 271 275 258 262 266 265 277 283
320 315 312 311 313 309 307 296 293 289 284 278 276 276 275 271 268 264 268 270 274 281 289 294 296 283 275 271 254 242 255 251 252 252 262 269 261 270 269 267 268 276 272
331 329 324 322 321 317 317 310 306 298 293 292 285 280 278 276 272 268 271 267 270 278 285 291 295 292 262 255 249 253 254 243 241 251 263 261 261 266 260 268 271 272 280
344 339 331 331 329 328 324 316 314 311 307 302 295 290 287 283 277 285 269 266 269 276 281 288 295 295 281 265 259 257 257 232 232 247 261 265 256 261 262 267 266 270 275
354 349 342 336 334 334 332 328 325 317 312 311 306 297 295 291 288 285 272 269 272 276 281 285 286 293 293 285 279 277 277 274 266 256 259 264 269 263 265 269 265 268 274
360 359 357 351 345 339 337 336 334 329 328 322 317 315 313 301 302 297 284 281 279 279 283 284 283 285 287 283 275 278 284 284 278 276 276 275 280 280 270 268 269 278 288
357 358 357 359 0 355 347 341 340 338 334 330 329 325 315 317 318 297 292 288 285 288 289 289 286 283 282 281 278 277 280 283 296 296 287 288 290 288 282 275 270 267 277
357 358 358 360 1 3 3 357 349 347 344 339 339 335 332 324 327 318 308 312 296 293 295 296 297 288 285 281 278 276 276 280 286 292 294 296 293 296 292 287 280 272 275
355 356 358 1 3 3 3 2 2 359 354 350 347 342 339 345 343 335 342 318 307 311 301 298 302 298 293 290 283 283 279 285 293 297 300 300 303 304 303 298 293 284 280
355 356 356 358 360 0 1 2 0 359 358 358 355 353 348 346 348 346 349 350 337 323 317 308 313 317 311 298 293 293 291 293 296 299 301 301 304 306 312 313 309 311 313
356 357 358 357 357 357 356 355 355 355 355 354 352 351 351 353 352 350 350 348 348 339 330 341 332 324 322 318 319 314 316 306 308 308 309 310 316 315 312 311 314 314 322
353 353 353 353 354 357 359 357 354 351 349 348 349 350 349 351 351 353 353 352 348 344 342 346 337 328 333 324 326 329 322 316 315 309 312 314 316 316 320 311 311 311 316
351 350 350 350 351 351 352 352 352 353 353 349 348 345 343 344 344 347 346 343 344 344 346 338 334 335 329 325 330 333 326 329 327 319 324 320 317 317 316 314 312 313 309
346 346 345 345 347 347 346 346 351 351 352 352 351 348 344 347 345 346 346 348 349 345 334 332 333 330 329 328 327 321 322 321 324 324 321 317 316 315 316 319 318 318 316
344 343 342 342 340 339 339 337 334 337 343 344 343 344 343 340 339 341 342 346 345 344 341 337 336 333 329 329 330 330 327 324 329 324 320 320 318 318 318 317 318 319 320
341 341 340 339 338 337 335 333 333 331 328 329 333 335 336 336 336 335 334 336 334 337 336 333 333 333 333 332 331 329 329 331 329 330 329 327 326 323 321 319 319 318 317
338 338 337 337 336 335 334 334 333 332 330 328 328 329 330 330 333 335 335 330 327 327 328 330 330 330 330 329 328 328 329 328 327 325 325 325 324 325 323 322 322 322 320
337 336 336 335 334 333 332 331 331 330 329 328 327 326 327 327 325 326 328 327 325 323 323 324 323 325 325 326 326 326 325 323 322 323 323 324 324 323 321 321 321 319 320
332 332 331 330 329 327 326 325 325 325 324 325 325 326 327 326 324 323 322 322 321 320 320 320 320 321 320 321 320 321 321 321 322 322 323 323 323 322 323 323 323 324 323
332 331 330 328 327 326 324 323 322 321 321 321 321 323 325 324 323 322 321 321 320 319 318 318 318 319 319 319 318 318 317 317 317 317 318 319 319 320 320 320 321 322 322
332 330 329 328 327 325 324 322 320 319 319 319 318 319 319 319 319 319 319 320 320 320 319 318 316 316 318 320 320 319 316 315 314 314 314 315 316 316 317 316 317 317 318
331 330 328 327 326 323 321 319 318 317 317 316 315 315 315 316 316 316 317 317 317 317 317 316 315 315 315 316 317 318 318 317 316 315 314 314 314 315 316 316 317 317 318
334 331 329 328 327 326 324 323 321 320 319 318 317 316 315 315 314 316 314 313 312 312 312 313 313 313 314 315 316 318 318 317 316 315 314 313 313 313 314 315 315 315 316
335 334 333 332 330 329 327 325 324 322 321 320 318 317 316 315 315 314 313 312 310 309 309 309 309 311 312 314 316 318 320 320 318 316 314 313 313 313 315 315 316 316 317